Time,TemperatureF,DewpointF,PressureIn,WindDirection,WindDirectionDegrees,WindSpeedMPH,WindSpeedGustMPH,Humidity,HourlyPrecipIn,Conditions,Clouds,dailyrainin,SoftwareType,DateUTC
2013-05-07 00:02:00,58.0,-99.9,29.95,WSW,257,8.0,11.0,-999,-99.99,,,-99.99,,2013-05-07 07:02:00,
2013-05-07 00:11:00,58.0,-99.9,29.95,West,262,6.0,11.0,-999,-99.99,,,-99.99,,2013-05-07 07:11:00,
2013-05-07 00:22:00,58.0,-99.9,29.95,WSW,257,6.0,9.0,-999,-99.99,,,-99.99,,2013-05-07 07:22:00,
2013-05-07 00:32:00,58.0,-99.9,29.95,West,263,7.0,10.0,-999,-99.99,,,-99.99,,2013-05-07 07:32:00,
2013-05-07 00:42:00,58.0,-99.9,29.95,West,263,7.0,10.0,-999,-99.99,,,-99.99,,2013-05-07 07:42:00,
2013-05-07 00:53:00,58.0,-99.9,29.95,West,269,5.0,8.0,-999,-99.99,,,-99.99,,2013-05-07 07:53:00,
2013-05-07 01:02:00,58.0,-99.9,29.95,West,269,5.0,8.0,-999,-99.99,,,-99.99,,2013-05-07 08:02:00,
2013-05-07 01:11:00,58.0,-99.9,29.96,WSW,255,6.0,10.0,-999,-99.99,,,-99.99,,2013-05-07 08:11:00,
2013-05-07 01:22:00,58.0,-99.9,29.95,West,260,6.0,9.0,-999,-99.99,,,-99.99,,2013-05-07 08:22:00,
2013-05-07 01:32:00,58.0,-99.9,29.95,WSW,258,7.0,11.0,-999,-99.99,,,-99.99,,2013-05-07 08:32:00,
2013-05-07 01:42:00,58.0,-99.9,29.94,West,264,5.0,8.0,-999,-99.99,,,-99.99,,2013-05-07 08:42:00,
2013-05-07 01:52:00,58.0,-99.9,29.94,West,267,4.0,7.0,-999,-99.99,,,-99.99,,2013-05-07 08:52:00,
2013-05-07 02:02:00,59.0,-99.9,29.94,West,267,4.0,7.0,-999,-99.99,,,-99.99,,2013-05-07 09:02:00,
2013-05-07 02:12:00,59.0,-99.9,29.94,West,267,6.0,8.0,-999,-99.99,,,-99.99,,2013-05-07 09:12:00,
2013-05-07 02:23:00,59.0,-99.9,29.94,West,272,5.0,8.0,-999,-99.99,,,-99.99,,2013-05-07 09:23:00,
2013-05-07 02:33:00,59.0,-99.9,29.93,WSW,256,4.0,6.0,-999,-99.99,,,-99.99,,2013-05-07 09:33:00,
2013-05-07 02:43:00,59.0,-99.9,29.94,West,268,4.0,7.0,-999,-99.99,,,-99.99,,2013-05-07 09:43:00,
2013-05-07 02:53:00,58.0,-99.9,29.94,West,268,6.0,8.0,-999,-99.99,,,-99.99,,2013-05-07 09:53:00,
2013-05-07 03:03:00,58.0,-99.9,29.94,West,272,5.0,8.0,-999,-99.99,,,-99.99,,2013-05-07 10:03:00,
2013-05-07 03:13:00,58.0,-99.9,29.94,West,272,4.0,8.0,-999,-99.99,,,-99.99,,2013-05-07 10:13:00,
2013-05-07 03:23:00,58.0,-99.9,29.94,West,270,5.0,7.0,-999,-99.99,,,-99.99,,2013-05-07 10:23:00,
2013-05-07 03:33:00,58.0,-99.9,29.94,West,267,5.0,11.0,-999,-99.99,,,-99.99,,2013-05-07 10:33:00,
2013-05-07 03:42:00,58.0,-99.9,29.94,West,267,7.0,10.0,-999,-99.99,,,-99.99,,2013-05-07 10:42:00,
2013-05-07 03:52:00,58.0,-99.9,29.94,WSW,257,6.0,10.0,-999,-99.99,,,-99.99,,2013-05-07 10:52:00,
2013-05-07 04:03:00,58.0,-99.9,29.95,West,266,7.0,9.0,-999,-99.99,,,-99.99,,2013-05-07 11:03:00,
2013-05-07 04:12:00,58.0,-99.9,29.95,West,267,5.0,9.0,-999,-99.99,,,-99.99,,2013-05-07 11:12:00,
2013-05-07 04:22:00,58.0,-99.9,29.95,West,271,5.0,9.0,-999,-99.99,,,-99.99,,2013-05-07 11:22:00,
2013-05-07 04:32:00,58.0,-99.9,29.95,West,271,5.0,9.0,-999,-99.99,,,-99.99,,2013-05-07 11:32:00,
2013-05-07 04:42:00,58.0,-99.9,29.95,West,267,5.0,10.0,-999,-99.99,,,-99.99,,2013-05-07 11:42:00,
2013-05-07 04:52:00,58.0,-99.9,29.95,West,261,7.0,11.0,-999,-99.99,,,-99.99,,2013-05-07 11:52:00,
2013-05-07 05:02:00,58.0,-99.9,29.95,West,273,6.0,9.0,-999,-99.99,,,-99.99,,2013-05-07 12:02:00,
2013-05-07 05:12:00,58.0,-99.9,29.95,West,277,6.0,8.0,-999,-99.99,,,-99.99,,2013-05-07 12:12:00,
2013-05-07 05:22:00,58.0,-99.9,29.95,West,274,4.0,8.0,-999,-99.99,,,-99.99,,2013-05-07 12:22:00,
2013-05-07 05:32:00,58.0,-99.9,29.95,West,270,4.0,7.0,-999,-99.99,,,-99.99,,2013-05-07 12:32:00,
2013-05-07 05:42:00,58.0,-99.9,29.95,West,274,4.0,8.0,-999,-99.99,,,-99.99,,2013-05-07 12:42:00,
2013-05-07 05:52:00,58.0,-99.9,29.96,West,261,6.0,8.0,-999,-99.99,,,-99.99,,2013-05-07 12:52:00,
2013-05-07 06:02:00,58.0,-99.9,29.96,West,266,5.0,9.0,-999,-99.99,,,-99.99,,2013-05-07 13:02:00,
2013-05-07 06:11:00,58.0,-99.9,29.96,West,266,5.0,9.0,-999,-99.99,,,-99.99,,2013-05-07 13:11:00,
2013-05-07 06:22:00,58.0,-99.9,29.96,West,261,6.0,8.0,-999,-99.99,,,-99.99,,2013-05-07 13:22:00,
2013-05-07 06:32:00,58.0,-99.9,29.96,West,275,5.0,8.0,-999,-99.99,,,-99.99,,2013-05-07 13:32:00,
2013-05-07 06:42:00,58.0,-99.9,29.96,West,270,4.0,7.0,-999,-99.99,,,-99.99,,2013-05-07 13:42:00,
2013-05-07 06:52:00,58.0,-99.9,29.96,WSW,255,6.0,8.0,-999,-99.99,,,-99.99,,2013-05-07 13:52:00,
2013-05-07 07:02:00,58.0,-99.9,29.96,West,273,6.0,8.0,-999,-99.99,,,-99.99,,2013-05-07 14:02:00,
2013-05-07 07:11:00,58.0,-99.9,29.96,West,278,5.0,8.0,-999,-99.99,,,-99.99,,2013-05-07 14:11:00,
2013-05-07 07:22:00,58.0,-99.9,29.96,West,270,4.0,7.0,-999,-99.99,,,-99.99,,2013-05-07 14:22:00,
2013-05-07 07:32:00,58.0,-99.9,29.97,West,279,4.0,6.0,-999,-99.99,,,-99.99,,2013-05-07 14:32:00,
2013-05-07 07:42:00,58.0,-99.9,29.97,WNW,285,4.0,7.0,-999,-99.99,,,-99.99,,2013-05-07 14:42:00,
2013-05-07 07:52:00,58.0,-99.9,29.98,West,278,5.0,9.0,-999,-99.99,,,-99.99,,2013-05-07 14:52:00,
2013-05-07 08:01:00,58.0,-99.9,29.98,West,264,7.0,11.0,-999,-99.99,,,-99.99,,2013-05-07 15:01:00,
2013-05-07 08:12:00,59.0,-99.9,29.98,WSW,249,6.0,10.0,-999,-99.99,,,-99.99,,2013-05-07 15:12:00,
2013-05-07 08:22:00,59.0,-99.9,29.99,West,276,7.0,10.0,-999,-99.99,,,-99.99,,2013-05-07 15:22:00,
2013-05-07 08:33:00,60.0,-99.9,29.99,West,278,4.0,7.0,-999,-99.99,,,-99.99,,2013-05-07 15:33:00,
2013-05-07 08:43:00,60.0,-99.9,29.99,West,274,6.0,10.0,-999,-99.99,,,-99.99,,2013-05-07 15:43:00,
2013-05-07 08:53:00,59.0,-99.9,29.99,WNW,302,6.0,9.0,-999,-99.99,,,-99.99,,2013-05-07 15:53:00,
2013-05-07 09:03:00,60.0,-99.9,30.00,West,270,6.0,11.0,-999,-99.99,,,-99.99,,2013-05-07 16:03:00,
2013-05-07 09:12:00,60.0,-99.9,30.00,West,266,4.0,9.0,-999,-99.99,,,-99.99,,2013-05-07 16:12:00,
2013-05-07 09:22:00,60.0,-99.9,30.00,SW,217,3.0,7.0,-999,-99.99,,,-99.99,,2013-05-07 16:22:00,
2013-05-07 09:32:00,62.0,-99.9,30.00,WSW,249,2.0,5.0,-999,-99.99,,,-99.99,,2013-05-07 16:32:00,
2013-05-07 09:42:00,62.0,-99.9,30.00,WSW,241,3.0,8.0,-999,-99.99,,,-99.99,,2013-05-07 16:42:00,
2013-05-07 09:52:00,63.0,-99.9,30.00,NNW,332,1.0,6.0,-999,-99.99,,,-99.99,,2013-05-07 16:52:00,
2013-05-07 10:01:00,63.0,-99.9,30.00,NNW,332,1.0,6.0,-999,-99.99,,,-99.99,,2013-05-07 17:01:00,
2013-05-07 10:12:00,64.0,-99.9,30.00,West,264,2.0,6.0,-999,-99.99,,,-99.99,,2013-05-07 17:12:00,
2013-05-07 10:21:00,62.0,-99.9,30.01,SSW,198,3.0,11.0,-999,-99.99,,,-99.99,,2013-05-07 17:21:00,
2013-05-07 10:32:00,62.0,-99.9,30.01,SSW,198,3.0,11.0,-999,-99.99,,,-99.99,,2013-05-07 17:32:00,
2013-05-07 10:41:00,62.0,-99.9,30.01,West,269,9.0,12.0,-999,-99.99,,,-99.99,,2013-05-07 17:41:00,
2013-05-07 10:53:00,63.0,-99.9,30.01,West,264,9.0,14.0,-999,-99.99,,,-99.99,,2013-05-07 17:53:00,
2013-05-07 11:01:00,63.0,-99.9,30.01,WSW,247,2.0,16.0,-999,-99.99,,,-99.99,,2013-05-07 18:01:00,
2013-05-07 11:11:00,62.0,-99.9,30.01,WSW,244,7.0,14.0,-999,-99.99,,,-99.99,,2013-05-07 18:11:00,
2013-05-07 11:21:00,63.0,-99.9,30.01,West,264,8.0,14.0,-999,-99.99,,,-99.99,,2013-05-07 18:21:00,
2013-05-07 11:32:00,63.0,-99.9,30.01,WSW,240,7.0,15.0,-999,-99.99,,,-99.99,,2013-05-07 18:32:00,
2013-05-07 11:42:00,63.0,-99.9,30.01,WSW,247,9.0,15.0,-999,-99.99,,,-99.99,,2013-05-07 18:42:00,
2013-05-07 11:52:00,63.0,-99.9,30.01,West,263,7.0,16.0,-999,-99.99,,,-99.99,,2013-05-07 18:52:00,
2013-05-07 12:02:00,64.0,-99.9,30.01,SW,224,4.0,12.0,-999,-99.99,,,-99.99,,2013-05-07 19:02:00,
2013-05-07 12:11:00,64.0,-99.9,30.01,West,263,2.0,11.0,-999,-99.99,,,-99.99,,2013-05-07 19:11:00,
2013-05-07 12:22:00,64.0,-99.9,30.01,West,260,6.0,14.0,-999,-99.99,,,-99.99,,2013-05-07 19:22:00,
2013-05-07 12:32:00,63.0,-99.9,30.01,SW,235,6.0,13.0,-999,-99.99,,,-99.99,,2013-05-07 19:32:00,
2013-05-07 12:42:00,63.0,-99.9,30.02,West,269,7.0,13.0,-999,-99.99,,,-99.99,,2013-05-07 19:42:00,
2013-05-07 12:52:00,63.0,-99.9,30.02,West,267,8.0,13.0,-999,-99.99,,,-99.99,,2013-05-07 19:52:00,
2013-05-07 13:02:00,62.0,-99.9,30.02,West,267,12.0,15.0,-999,-99.99,,,-99.99,,2013-05-07 20:02:00,
2013-05-07 13:12:00,63.0,-99.9,30.01,West,263,6.0,15.0,-999,-99.99,,,-99.99,,2013-05-07 20:12:00,
2013-05-07 13:22:00,63.0,-99.9,30.01,SW,234,9.0,15.0,-999,-99.99,,,-99.99,,2013-05-07 20:22:00,
2013-05-07 13:32:00,64.0,-99.9,30.01,West,265,8.0,11.0,-999,-99.99,,,-99.99,,2013-05-07 20:32:00,
2013-05-07 13:42:00,65.0,-99.9,30.01,WSW,245,6.0,13.0,-999,-99.99,,,-99.99,,2013-05-07 20:42:00,
2013-05-07 13:52:00,64.0,-99.9,30.01,West,265,9.0,13.0,-999,-99.99,,,-99.99,,2013-05-07 20:52:00,
2013-05-07 14:02:00,64.0,-99.9,30.01,WSW,258,10.0,16.0,-999,-99.99,,,-99.99,,2013-05-07 21:02:00,
2013-05-07 14:11:00,65.0,-99.9,30.01,West,264,9.0,18.0,-999,-99.99,,,-99.99,,2013-05-07 21:11:00,
2013-05-07 14:22:00,65.0,-99.9,30.01,WSW,242,5.0,13.0,-999,-99.99,,,-99.99,,2013-05-07 21:22:00,
2013-05-07 14:33:00,64.0,-99.9,30.01,West,274,9.0,13.0,-999,-99.99,,,-99.99,,2013-05-07 21:33:00,
2013-05-07 14:43:00,65.0,-99.9,30.00,West,268,10.0,14.0,-999,-99.99,,,-99.99,,2013-05-07 21:43:00,
2013-05-07 14:53:00,65.0,-99.9,30.00,West,270,7.0,14.0,-999,-99.99,,,-99.99,,2013-05-07 21:53:00,
2013-05-07 15:02:00,65.0,-99.9,30.00,SW,215,6.0,14.0,-999,-99.99,,,-99.99,,2013-05-07 22:02:00,
2013-05-07 15:13:00,66.0,-99.9,30.00,WSW,250,7.0,13.0,-999,-99.99,,,-99.99,,2013-05-07 22:13:00,
2013-05-07 15:22:00,65.0,-99.9,29.99,West,260,9.0,16.0,-999,-99.99,,,-99.99,,2013-05-07 22:22:00,
2013-05-07 15:33:00,65.0,-99.9,29.99,West,260,9.0,16.0,-999,-99.99,,,-99.99,,2013-05-07 22:33:00,
2013-05-07 15:42:00,66.0,-99.9,29.99,SSW,209,7.0,15.0,-999,-99.99,,,-99.99,,2013-05-07 22:42:00,
2013-05-07 15:52:00,65.0,-99.9,29.99,WSW,255,11.0,17.0,-999,-99.99,,,-99.99,,2013-05-07 22:52:00,
2013-05-07 16:02:00,65.0,-99.9,29.98,WSW,240,7.0,18.0,-999,-99.99,,,-99.99,,2013-05-07 23:02:00,
2013-05-07 16:12:00,64.0,-99.9,29.99,West,262,11.0,18.0,-999,-99.99,,,-99.99,,2013-05-07 23:12:00,
2013-05-07 16:22:00,64.0,-99.9,29.98,WSW,239,9.0,13.0,-999,-99.99,,,-99.99,,2013-05-07 23:22:00,
2013-05-07 16:32:00,65.0,-99.9,29.98,WSW,239,8.0,15.0,-999,-99.99,,,-99.99,,2013-05-07 23:32:00,
2013-05-07 16:42:00,63.0,-99.9,29.98,WSW,258,13.0,17.0,-999,-99.99,,,-99.99,,2013-05-07 23:42:00,
2013-05-07 16:52:00,64.0,-99.9,29.98,WSW,258,9.0,16.0,-999,-99.99,,,-99.99,,2013-05-07 23:52:00,
2013-05-07 17:02:00,64.0,-99.9,29.98,WSW,253,8.0,14.0,-999,-99.99,,,-99.99,,2013-05-08 00:02:00,
2013-05-07 17:12:00,63.0,-99.9,29.98,WSW,247,9.0,16.0,-999,-99.99,,,-99.99,,2013-05-08 00:12:00,
2013-05-07 17:22:00,64.0,-99.9,29.98,WSW,247,8.0,14.0,-999,-99.99,,,-99.99,,2013-05-08 00:22:00,
2013-05-07 17:32:00,62.0,-99.9,29.98,WSW,238,9.0,16.0,-999,-99.99,,,-99.99,,2013-05-08 00:32:00,
2013-05-07 17:42:00,63.0,-99.9,29.98,WSW,247,10.0,14.0,-999,-99.99,,,-99.99,,2013-05-08 00:42:00,
2013-05-07 17:52:00,62.0,-99.9,29.98,WSW,245,9.0,16.0,-999,-99.99,,,-99.99,,2013-05-08 00:52:00,
2013-05-07 18:02:00,60.0,-99.9,29.98,West,261,14.0,19.0,-999,-99.99,,,-99.99,,2013-05-08 01:02:00,
2013-05-07 18:12:00,61.0,-99.9,29.98,WSW,257,9.0,16.0,-999,-99.99,,,-99.99,,2013-05-08 01:12:00,
2013-05-07 18:22:00,61.0,-99.9,29.98,WSW,255,10.0,16.0,-999,-99.99,,,-99.99,,2013-05-08 01:22:00,
2013-05-07 18:32:00,61.0,-99.9,29.98,WSW,255,10.0,16.0,-999,-99.99,,,-99.99,,2013-05-08 01:32:00,
2013-05-07 18:42:00,60.0,-99.9,29.98,WSW,254,11.0,19.0,-999,-99.99,,,-99.99,,2013-05-08 01:42:00,
2013-05-07 18:52:00,60.0,-99.9,29.98,WSW,255,13.0,18.0,-999,-99.99,,,-99.99,,2013-05-08 01:52:00,
2013-05-07 19:02:00,59.0,-99.9,29.98,WSW,245,9.0,19.0,-999,-99.99,,,-99.99,,2013-05-08 02:02:00,
2013-05-07 19:12:00,59.0,-99.9,29.98,WSW,248,11.0,19.0,-999,-99.99,,,-99.99,,2013-05-08 02:12:00,
2013-05-07 19:22:00,58.0,-99.9,29.98,WSW,246,13.0,17.0,-999,-99.99,,,-99.99,,2013-05-08 02:22:00,
2013-05-07 19:32:00,57.0,-99.9,29.98,WSW,249,14.0,18.0,-999,-99.99,,,-99.99,,2013-05-08 02:32:00,
2013-05-07 19:42:00,58.0,-99.9,29.98,WSW,255,9.0,14.0,-999,-99.99,,,-99.99,,2013-05-08 02:42:00,
2013-05-07 19:52:00,56.0,-99.9,29.98,WSW,257,12.0,18.0,-999,-99.99,,,-99.99,,2013-05-08 02:52:00,
2013-05-07 20:02:00,56.0,-99.9,29.99,WSW,258,9.0,16.0,-999,-99.99,,,-99.99,,2013-05-08 03:02:00,
2013-05-07 20:11:00,55.0,-99.9,29.99,West,259,13.0,18.0,-999,-99.99,,,-99.99,,2013-05-08 03:11:00,
2013-05-07 20:22:00,54.0,-99.9,30.00,West,266,12.0,17.0,-999,-99.99,,,-99.99,,2013-05-08 03:22:00,
2013-05-07 20:33:00,54.0,-99.9,30.00,WSW,254,11.0,19.0,-999,-99.99,,,-99.99,,2013-05-08 03:33:00,
2013-05-07 20:43:00,54.0,-99.9,30.01,WSW,244,6.0,15.0,-999,-99.99,,,-99.99,,2013-05-08 03:43:00,
2013-05-07 20:52:00,54.0,-99.9,30.01,WSW,248,6.0,11.0,-999,-99.99,,,-99.99,,2013-05-08 03:52:00,
2013-05-07 21:02:00,54.0,-99.9,30.01,WSW,249,7.0,13.0,-999,-99.99,,,-99.99,,2013-05-08 04:02:00,
2013-05-07 21:13:00,54.0,-99.9,30.01,SW,221,3.0,8.0,-999,-99.99,,,-99.99,,2013-05-08 04:13:00,
2013-05-07 21:23:00,54.0,-99.9,30.01,WNW,287,4.0,8.0,-999,-99.99,,,-99.99,,2013-05-08 04:23:00,
2013-05-07 21:33:00,54.0,-99.9,30.02,WSW,253,7.0,12.0,-999,-99.99,,,-99.99,,2013-05-08 04:33:00,
2013-05-07 21:43:00,54.0,-99.9,30.01,West,259,7.0,11.0,-999,-99.99,,,-99.99,,2013-05-08 04:43:00,
2013-05-07 21:53:00,54.0,-99.9,30.02,West,259,8.0,11.0,-999,-99.99,,,-99.99,,2013-05-08 04:53:00,
2013-05-07 22:02:00,54.0,-99.9,30.03,WSW,254,6.0,9.0,-999,-99.99,,,-99.99,,2013-05-08 05:02:00,
2013-05-07 22:12:00,54.0,-99.9,30.03,WSW,255,5.0,9.0,-999,-99.99,,,-99.99,,2013-05-08 05:12:00,
2013-05-07 22:22:00,55.0,-99.9,30.03,WSW,246,3.0,8.0,-999,-99.99,,,-99.99,,2013-05-08 05:22:00,
2013-05-07 22:32:00,55.0,-99.9,30.03,WSW,252,5.0,9.0,-999,-99.99,,,-99.99,,2013-05-08 05:32:00,
2013-05-07 22:42:00,54.0,-99.9,30.02,WSW,258,6.0,10.0,-999,-99.99,,,-99.99,,2013-05-08 05:42:00,
2013-05-07 22:52:00,54.0,-99.9,30.02,WSW,253,6.0,11.0,-999,-99.99,,,-99.99,,2013-05-08 05:52:00,
2013-05-07 23:02:00,54.0,-99.9,30.02,SW,234,8.0,15.0,-999,-99.99,,,-99.99,,2013-05-08 06:02:00,
2013-05-07 23:12:00,54.0,-99.9,30.03,West,264,6.0,11.0,-999,-99.99,,,-99.99,,2013-05-08 06:12:00,
2013-05-07 23:22:00,54.0,-99.9,30.02,WSW,257,7.0,11.0,-999,-99.99,,,-99.99,,2013-05-08 06:22:00,
2013-05-07 23:32:00,54.0,-99.9,30.03,WSW,247,5.0,9.0,-999,-99.99,,,-99.99,,2013-05-08 06:32:00,
2013-05-07 23:42:00,54.0,-99.9,30.03,West,271,6.0,11.0,-999,-99.99,,,-99.99,,2013-05-08 06:42:00,
2013-05-07 23:52:00,54.0,-99.9,30.03,WSW,244,4.0,8.0,-999,-99.99,,,-99.99,,2013-05-08 06:52:00,